Showing default

LANDSAT 1 (ERTS 1), 6126

Orbit data source: Space-Track

LANDSAT 1 (ERTS 1), 6126 is a payload satellite owned by GSFC (US) in SSO that was launched on Sun, 23 Jul 1972 UTC via a DELTA 0900 launch vehicle from the Air Force Western Test Range (AFWTR). Payloads include a variety of satellites, spacecraft, and rockets equipped with specific instruments for various scientific and technological missions. These include communications satellites like Starlink; space stations such as the ISS; scientific satellites like the Hubble; Earth observation satellites from companies like Planet Labs, Umbra, and HawkEye 360; GPS; miniature CubeSats for education and research; and military/defense satellites.

Loading next visibility...
LANDSAT 1 (ERTS 1) details
Identifier
6126, 1972-058A
Orbit
SSO
Last TLE update9 hours ago
Origin
Flag of USGSFC (US)
ManufacturerGE/MSVD
MissionNon-operational Civil Imaging
Bus & MotorNIMBUS, Unknown motor
Mass891 kg wet, 891 kg dry
Launch date (UTC)
1972-07-23 (52 years ago)
Launch vehicle
DELTA 0900
Launch site
Air Force Western Test Range (AFWTR)
Object type
Payload
Rocket body
Debris
Shape & HBRCone + 2 Pan, 3.3 m
Radar Cross Section2.170 m², Large (>1 m²)

Expand to show TLE details & history

TLE from 9 hours ago
0 LANDSAT 1 (ERTS 1)
1 06126U 72058A   24361.25604121  .00000271  00000-0  22480-3 0  9993
2 06126  99.3749   9.7118 0007061 282.5145  77.5227 13.97763419672808
Epoch: 2024-12-26T06:08Z
Definitive object data (Epoch: 2024-12-26T06:08:41.96Z)
Latitude-0.00002°
Longitude-177.70108°
Altitude903.305 km
Speed7.401 km/s
True Right ascension00h 38m 50s
True Declination0° 00' 00"
Sunlit
Object was in daylight at TLE epoch
Visualization TLE readout
Latitude80.67112°
Longitude91.43364°
Altitude919.951 km
Speed7.396 km/s
Apparent Right ascension01h 37m 54s
Apparent Declination34° 58' 39"
Sunlit
Object is in daylight
Visualization observer readout
Local Sidereal Time14:31:51
Azimuth11.363° NNE
Elevation-14.08°
Doppler factor1
Orbital elements
Apogee altitude903.91 km
Perigee altitude893.633 km
Semi-major axis7,276.908 km
Eccentricity0.0007061
Inclination99.3749°
RAAN9.7118°
Arg. of periapsis282.5145°
True anomaly77.60172°
Mean anomaly77.5227°
Eccentric anomaly77.56221°
Mean motion3.49641 °/min
BSTAR0.0002248
Orbital period102.96 mins
Loading maneuver chart data...

LANDSAT 1 (ERTS 1) Visibility forecast

Observer location: undefined°, undefined

Span
Click to sort rows by Start time (UTC) header in descending order
Start Az.
Max El. time (UTC)
Max El. Az.
Max El.
End time (UTC)
End Az.
6 mins2024-12-26 15:18:53.932Z335.176° NNW2024-12-26 15:21:53.932Z302.543° NW15.641°2024-12-26 15:24:53.932Z268.888° W
6 mins2024-12-26 23:29:53.932Z97.482° ESE2024-12-26 23:32:53.932Z57.075° ENE20.835°2024-12-26 23:35:53.932Z20.715° NNE
9 mins2024-12-27 01:09:53.932Z188.377° SSW2024-12-27 01:13:53.932Z263.012° W38.771°2024-12-27 01:18:53.932Z334.487° NNW
9 mins2024-12-27 13:39:53.932Z17.925° NNE2024-12-27 13:43:53.932Z71.768° E44.481°2024-12-27 13:48:53.932Z191.223° SSW
|